This is the latest recevied weather packets stored in our database for station/object OE5RBO. If no packets are shown the sender has not sent any weather packets the latest 10 day(s).
| Time | Temp. | Humidity | Pressure | Rain* | Wind** | Luminosity | Snow |
|---|---|---|---|---|---|---|---|
| 1778347348 | 20.56° C | 50% | 1014.8 hPa | 0 mm | - | - | - |
| 1778346747 | 20.56° C | 50% | 1014.8 hPa | 0 mm | - | - | - |
| 1778346147 | 20.56° C | 51% | 1014.9 hPa | 0 mm | - | - | - |
| 1778344946 | 21.11° C | 51% | 1014.9 hPa | 0 mm | - | - | - |
| 1778344346 | 21.11° C | 51% | 1015 hPa | 0 mm | - | - | - |
| 1778343745 | 20.56° C | 50% | 1015 hPa | 0 mm | - | - | - |
| 1778343145 | 21.11° C | 51% | 1015.1 hPa | 0 mm | - | - | - |
| 1778342545 | 21.11° C | 50% | 1015.2 hPa | 0 mm | - | - | - |
| 1778341944 | 21.11° C | 52% | 1015.2 hPa | 0 mm | - | - | - |
| 1778341344 | 21.11° C | 49% | 1015.3 hPa | 0 mm | - | - | - |
| 1778340744 | 21.11° C | 50% | 1015.4 hPa | 0 mm | - | - | - |
| 1778340143 | 21.11° C | 51% | 1015.3 hPa | 0 mm | - | - | - |
| 1778339543 | 21.11° C | 51% | 1015.4 hPa | 0 mm | - | - | - |
| 1778338342 | 21.11° C | 51% | 1015.5 hPa | 0 mm | - | - | - |
| 1778337742 | 21.11° C | 53% | 1015.5 hPa | 0 mm | - | - | - |
| 1778336541 | 22.22° C | 55% | 1015.5 hPa | 0 mm | - | - | - |
| 1778335941 | 21.67° C | 55% | 1015.5 hPa | 0 mm | - | - | - |
| 1778335340 | 21.11° C | 56% | 1015.6 hPa | 0 mm | - | - | - |
| 1778334740 | 21.67° C | 59% | 1015.6 hPa | 0 mm | - | - | - |
| 1778334140 | 21.11° C | 58% | 1015.6 hPa | 0 mm | - | - | - |
| 1778332939 | 21.67° C | 58% | 1015.8 hPa | 0 mm | - | - | - |
| 1778331738 | 20° C | 64% | 1015.9 hPa | 0 mm | - | - | - |
| 1778331138 | 20° C | 65% | 1016.1 hPa | 0 mm | - | - | - |
| 1778330537 | 20.56° C | 64% | 1016.2 hPa | 0 mm | - | - | - |
| 1778329937 | 21.11° C | 60% | 1016.2 hPa | 0 mm | - | - | - |
* Rain since midnight (hover to see other rain measurements)
** Current wind speed in m/s (hover to see current wind gust speed)